This demonstration page uses our WeatherBlox Daily Observations layout. Learn more.

Left ArrowRight Arrow

44.89941, -97.11507

Hourly Observations for January 13, 2021

Temp ( °F °C ) Dew Point ( °F °C ) Humidity (%) Winds ( mph kmh ) Pressure ( in mb ) Visibility ( mi km ) Precip ( " mm )
12:53 am 00:53 Mostly Clear 30 -1.1 27 -2.8 88 88 SSE 6 9 29.83 1010 10 16 0.00 0.00
1:53 am 01:53 Mostly Clear 31 -0.6 28 -2.2 89 89 SSE 5 7 29.80 1009 10 16 0.00 0.00
2:53 am 02:53 Cloudy 32 0 29 -1.7 88 88 SSE 3 6 29.80 1009 10 16 0.00 0.00
3:53 am 03:53 Mostly Cloudy 35 1.7 29 -1.7 78 78 E 3 6 29.75 1007 10 16 0.00 0.00
4:53 am 04:53 Cloudy 33 0.6 30 -1.1 89 89 Calm 29.77 1008 10 16 0.00 0.00
5:53 am 05:53 Cloudy 33 0.6 30 -1.1 89 89 Calm 29.77 1008 10 16 0.00 0.00
6:53 am 06:53 Cloudy 34 1.1 30 -1.1 85 85 S 6 9 29.75 1007 10 16 0.00 0.00
7:53 am 07:53 Cloudy 34 1.1 30 -1.1 85 85 S 3 6 29.73 1007 10 16 0.00 0.00
8:53 am 08:53 Mostly Sunny 31 -0.6 29 -1.7 92 92 Calm 29.71 1006 10 16 0.00 0.00
9:53 am 09:53 Sunny 38 3.3 31 -0.6 76 76 S 5 7 29.70 1006 10 16 0.00 0.00
10:53 am 10:53 Sunny 39 3.9 30 -1.1 70 70 SW 6 9 29.68 1005 10 16 0.00 0.00
11:53 am 11:53 Sunny 42 5.6 31 -0.6 65 65 SW 6 9 29.66 1004 10 16 0.00 0.00
12:53 pm 12:53 Sunny 42 5.6 32 0 68 68 SW 8 13 29.62 1003 10 16 0.00 0.00
1:53 pm 13:53 Sunny 43 6.1 32 0 65 65 S 5 7 29.59 1002 10 16 0.00 0.00
2:53 pm 14:53 Sunny 44 6.7 33 0.6 65 65 S 5 7 29.58 1002 10 16 0.00 0.00
3:53 pm 15:53 Sunny 40 4.4 33 0.6 77 77 SSW 6 9 29.58 1002 10 16 0.00 0.00
4:53 pm 16:53 Sunny 37 2.8 32 0 82 82 SSE 5 7 29.55 1001 10 16 0.00 0.00
5:53 pm 17:53 Clear 37 2.8 31 -0.6 79 79 SSW 7 11 29.55 1001 10 16 0.00 0.00
6:53 pm 18:53 Mostly Clear 37 2.8 32 0 82 82 SSW 5 7 29.55 1001 10 16 0.00 0.00
7:53 pm 19:53 Clear 35 1.7 31 -0.6 85 85 S 3 6 29.53 1000 10 16 0.00 0.00
8:53 pm 20:53 Mostly Cloudy 34 1.1 32 0 92 92 S 3 6 29.51 999 10 16 0.00 0.00
9:53 pm 21:53 Cloudy with Light Rain 36 2.2 34 1.1 93 93 SSW 8 13 29.48 998 7 11 0.01 0.25
10:53 pm 22:53 Cloudy with Light Rain 37 2.8 36 2.2 96 96 W 10 17 29.50 999 6 10 0.02 0.51
11:04 pm 23:04 Cloudy with Rain 39 3.9 38 3.3 96 96 W 9 15 29.51 999 3 4 0.04 1.02
11:14 pm 23:14 Cloudy with Rain 39 3.9 38 3.3 96 96 W 8 13 29.51 999 3 5 0.06 1.52
11:53 pm 23:53 Cloudy with Light Rain 40 4.4 38 3.3 93 93 W 15 24 29.49 999 7 11 0.08 2.03

Powered by AerisWeather